LAO312 VVNB-VLVT

Flight info

Callsign LAO312
Flight time 0h 51m
Altitude 38000
Route MC3A MC R474 NOHET VALEE1A
Aircraft A20N/M-SDE2E3FGHIRWXY/LB1

Departure

Time 2026-05-07 09:20
Airport Noi Bai International Airport (VVNB)

Arrival

Time 2026-05-07 10:11
Airport Wattay International Airport (VLVT)
Time Latitude Longitude Altitude Speed Heading
2026-05-07 09:11 21.21890 105.79297 48 ft 0 kts 198°
2026-05-07 09:14 21.21902 105.79302 76 ft 2 kts 198°
2026-05-07 09:14 21.21918 105.79307 41 ft 2 kts 198°
2026-05-07 09:14 21.21934 105.79313 45 ft 2 kts 198°
2026-05-07 09:14 21.21949 105.79318 46 ft 2 kts 198°
2026-05-07 09:15 21.21965 105.79323 44 ft 2 kts 198°
2026-05-07 09:15 21.21981 105.79329 46 ft 2 kts 197°
2026-05-07 09:15 21.21997 105.79334 44 ft 2 kts 210°
2026-05-07 09:15 21.22003 105.79348 47 ft 2 kts 288°
2026-05-07 09:16 21.22000 105.79358 43 ft 0 kts 287°
2026-05-07 09:17 21.22002 105.79350 46 ft 4 kts 287°
2026-05-07 09:17 21.22022 105.79280 48 ft 16 kts 287°
2026-05-07 09:17 21.22059 105.79153 48 ft 13 kts 291°
2026-05-07 09:17 21.22133 105.79140 49 ft 12 kts
2026-05-07 09:18 21.22177 105.79072 49 ft 16 kts 287°
2026-05-07 09:18 21.22224 105.78910 49 ft 27 kts 287°
2026-05-07 09:18 21.22282 105.78705 49 ft 30 kts 287°
2026-05-07 09:18 21.22357 105.78612 49 ft 9 kts 11°
2026-05-07 09:19 21.22445 105.78643 49 ft 16 kts 20°
2026-05-07 09:19 21.22453 105.78727 49 ft 14 kts 107°
2026-05-07 09:19 21.22382 105.78966 47 ft 66 kts 107°
2026-05-07 09:19 21.22183 105.79651 46 ft 126 kts 108°
2026-05-07 09:20 21.21881 105.80694 199 ft 160 kts 107°
2026-05-07 09:20 21.21550 105.81841 722 ft 159 kts 109°
2026-05-07 09:20 21.21223 105.82950 1404 ft 154 kts 109°
2026-05-07 09:20 21.20890 105.84064 1985 ft 163 kts 108°
2026-05-07 09:21 21.20540 105.85295 2394 ft 183 kts 108°
2026-05-07 09:21 21.20151 105.86704 2764 ft 210 kts 108°
2026-05-07 09:21 21.19718 105.88286 3385 ft 232 kts 107°
2026-05-07 09:21 21.19244 105.90034 4004 ft 256 kts 106°
2026-05-07 09:22 21.18736 105.91907 4741 ft 272 kts 106°
2026-05-07 09:22 21.18202 105.93873 5712 ft 277 kts 105°
2026-05-07 09:22 21.17639 105.95874 6642 ft 284 kts 110°
2026-05-07 09:22 21.16552 105.97660 7520 ft 292 kts 136°
2026-05-07 09:23 21.14817 105.98799 8446 ft 297 kts 162°
2026-05-07 09:23 21.12774 105.99068 9359 ft 300 kts 184°
2026-05-07 09:23 21.10681 105.98826 10200 ft 307 kts 189°
2026-05-07 09:23 21.08493 105.98467 10627 ft 330 kts 190°
2026-05-07 09:24 21.06141 105.98100 11002 ft 351 kts 189°
2026-05-07 09:24 21.03726 105.97773 11714 ft 356 kts 188°
2026-05-07 09:24 21.01253 105.97472 12555 ft 359 kts 188°
2026-05-07 09:24 20.98795 105.96990 13361 ft 361 kts 201°
2026-05-07 09:25 20.96598 105.95711 14077 ft 362 kts 220°
2026-05-07 09:25 20.94926 105.93705 14757 ft 364 kts 240°
2026-05-07 09:25 20.93886 105.91233 15424 ft 366 kts 250°
2026-05-07 09:25 20.92998 105.88668 16090 ft 370 kts 251°
2026-05-07 09:26 20.92109 105.86066 16745 ft 374 kts 251°
2026-05-07 09:26 20.91216 105.83476 17405 ft 378 kts 251°
2026-05-07 09:26 20.90292 105.80827 18045 ft 382 kts 250°
2026-05-07 09:26 20.89466 105.78117 18597 ft 385 kts 259°
2026-05-07 09:27 20.89304 105.75268 19149 ft 386 kts 276°
2026-05-07 09:27 20.89911 105.72472 19689 ft 388 kts 292°
2026-05-07 09:27 20.92161 105.67173 20795 ft 394 kts 295°
2026-05-07 09:28 20.93292 105.64532 21337 ft 397 kts 294°
2026-05-07 09:28 20.94441 105.61837 21880 ft 400 kts 294°
2026-05-07 09:28 20.95598 105.59115 22413 ft 403 kts 294°
2026-05-07 09:28 20.96760 105.56375 22949 ft 406 kts 294°
2026-05-07 09:29 20.97930 105.53613 23463 ft 409 kts 294°
2026-05-07 09:29 20.99104 105.50838 23908 ft 411 kts 294°
2026-05-07 09:29 21.00267 105.48031 24354 ft 413 kts 290°
2026-05-07 09:29 21.01029 105.45064 24788 ft 415 kts 279°
2026-05-07 09:30 21.01214 105.41975 25203 ft 418 kts 268°
2026-05-07 09:30 21.00828 105.38924 25619 ft 421 kts 259°
2026-05-07 09:30 21.00251 105.35843 26037 ft 424 kts 260°
2026-05-07 09:30 20.99679 105.32738 26448 ft 426 kts 260°
2026-05-07 09:31 20.99108 105.29621 26853 ft 428 kts 260°
2026-05-07 09:31 20.98535 105.26482 27240 ft 430 kts 260°
2026-05-07 09:31 20.97959 105.23334 27614 ft 433 kts 260°
2026-05-07 09:31 20.97380 105.20172 28038 ft 434 kts 260°
2026-05-07 09:32 20.96796 105.16987 28432 ft 437 kts 260°
2026-05-07 09:32 20.96218 105.13837 28792 ft 439 kts 260°
2026-05-07 09:32 20.95627 105.10626 29147 ft 441 kts 260°
2026-05-07 09:32 20.95033 105.07402 29489 ft 443 kts 260°
2026-05-07 09:33 20.94311 105.04190 29827 ft 446 kts 255°
2026-05-07 09:33 20.93295 105.01043 30138 ft 449 kts 251°
2026-05-07 09:33 20.92224 104.97895 30456 ft 451 kts 251°
2026-05-07 09:33 20.91157 104.94739 30751 ft 453 kts 251°
2026-05-07 09:34 20.90103 104.91613 31089 ft 453 kts 251°
2026-05-07 09:34 20.89033 104.88443 31481 ft 453 kts 251°
2026-05-07 09:34 20.87965 104.85280 31912 ft 451 kts 251°
2026-05-07 09:34 20.86900 104.82130 32289 ft 451 kts 251°
2026-05-07 09:35 20.85835 104.78981 32675 ft 450 kts 251°
2026-05-07 09:35 20.84770 104.75837 33086 ft 448 kts 251°
2026-05-07 09:35 20.83494 104.72801 33443 ft 450 kts 242°
2026-05-07 09:35 20.81757 104.70021 33809 ft 451 kts 233°
2026-05-07 09:36 20.79639 104.67610 34112 ft 453 kts 224°
2026-05-07 09:36 20.77159 104.65531 34408 ft 454 kts 219°
2026-05-07 09:36 20.74622 104.63528 34712 ft 453 kts 219°
2026-05-07 09:36 20.72098 104.61526 35006 ft 452 kts 219°
2026-05-07 09:37 20.69575 104.59523 35310 ft 451 kts 219°
2026-05-07 09:37 20.67061 104.57526 35584 ft 451 kts 219°
2026-05-07 09:37 20.64544 104.55528 35892 ft 450 kts 219°
2026-05-07 09:37 20.62065 104.53562 36181 ft 450 kts 219°
2026-05-07 09:38 20.59556 104.51573 36477 ft 449 kts 219°
2026-05-07 09:38 20.57047 104.49585 36790 ft 448 kts 218°
2026-05-07 09:38 20.54549 104.47606 37074 ft 448 kts 218°
2026-05-07 09:38 20.52048 104.45625 37334 ft 448 kts 218°
2026-05-07 09:39 20.49548 104.43646 37634 ft 447 kts 218°
2026-05-07 09:39 20.47051 104.41670 37838 ft 447 kts 218°
2026-05-07 09:39 20.44593 104.39727 37850 ft 445 kts 218°
2026-05-07 09:40 20.39607 104.35829 37860 ft 445 kts 218°
2026-05-07 09:40 20.34599 104.31953 37861 ft 445 kts 218°
2026-05-07 09:41 20.29591 104.28074 37865 ft 445 kts 218°
2026-05-07 09:41 20.24618 104.24221 37868 ft 445 kts 218°
2026-05-07 09:42 20.19613 104.20344 37867 ft 445 kts 218°
2026-05-07 09:42 20.14603 104.16468 37869 ft 445 kts 218°
2026-05-07 09:43 20.09598 104.12599 37866 ft 445 kts 218°
2026-05-07 09:43 20.04592 104.08731 37854 ft 445 kts 218°
2026-05-07 09:44 19.99621 104.04893 37849 ft 445 kts 218°
2026-05-07 09:44 19.94613 104.01030 37846 ft 445 kts 218°
2026-05-07 09:45 19.89595 103.97162 37845 ft 446 kts 218°
2026-05-07 09:45 19.84566 103.93290 37848 ft 447 kts 218°
2026-05-07 09:46 19.79565 103.89441 37849 ft 447 kts 218°
2026-05-07 09:46 19.74522 103.85564 37852 ft 447 kts 218°
2026-05-07 09:47 19.69486 103.81695 37846 ft 446 kts 218°
2026-05-07 09:47 19.64450 103.77830 37845 ft 447 kts 218°
2026-05-07 09:48 19.59448 103.73993 37843 ft 447 kts 218°
2026-05-07 09:48 19.54402 103.70126 37856 ft 447 kts 218°
2026-05-07 09:49 19.49359 103.66264 37848 ft 448 kts 218°
2026-05-07 09:49 19.44308 103.62399 37856 ft 448 kts 218°
2026-05-07 09:49 19.41779 103.60465 37731 ft 448 kts 217°
2026-05-07 09:50 19.39281 103.58567 37366 ft 449 kts 217°
2026-05-07 09:50 19.36727 103.56633 36607 ft 454 kts 217°
2026-05-07 09:50 19.34144 103.54678 35736 ft 459 kts 217°
2026-05-07 09:50 19.31542 103.52711 34940 ft 461 kts 217°
2026-05-07 09:51 19.28929 103.50734 34169 ft 463 kts 217°
2026-05-07 09:51 19.26301 103.48745 33294 ft 466 kts 217°
2026-05-07 09:51 19.23666 103.46751 32499 ft 466 kts 217°
2026-05-07 09:51 19.21056 103.44777 31662 ft 467 kts 217°
2026-05-07 09:52 19.18402 103.42771 30784 ft 470 kts 217°
2026-05-07 09:52 19.15752 103.40769 30206 ft 465 kts 217°
2026-05-07 09:52 19.13134 103.38792 29622 ft 461 kts 217°
2026-05-07 09:52 19.10541 103.36835 29015 ft 455 kts 217°
2026-05-07 09:53 19.07978 103.34901 28405 ft 450 kts 217°
2026-05-07 09:53 19.05446 103.32991 27798 ft 446 kts 217°
2026-05-07 09:53 19.02929 103.31093 27184 ft 441 kts 217°
2026-05-07 09:53 19.00474 103.29242 26568 ft 438 kts 217°
2026-05-07 09:54 18.97996 103.27375 25975 ft 436 kts 217°
2026-05-07 09:54 18.95533 103.25519 25347 ft 433 kts 216°
2026-05-07 09:54 18.93088 103.23677 24741 ft 430 kts 216°
2026-05-07 09:54 18.90662 103.21851 24132 ft 428 kts 216°
2026-05-07 09:55 18.88251 103.20035 23534 ft 426 kts 216°
2026-05-07 09:55 18.85846 103.18225 22857 ft 423 kts 216°
2026-05-07 09:55 18.83472 103.16440 22320 ft 416 kts 216°
2026-05-07 09:55 18.81164 103.14705 21731 ft 412 kts 216°
2026-05-07 09:56 18.78838 103.12958 21139 ft 408 kts 216°
2026-05-07 09:56 18.76536 103.11229 20520 ft 405 kts 216°
2026-05-07 09:56 18.74251 103.09513 19955 ft 401 kts 216°
2026-05-07 09:56 18.71983 103.07810 19375 ft 398 kts 216°
2026-05-07 09:57 18.69799 103.06026 18774 ft 396 kts 222°
2026-05-07 09:57 18.67864 103.03970 18178 ft 393 kts 230°
2026-05-07 09:57 18.66221 103.01723 17542 ft 390 kts 235°
2026-05-07 09:57 18.64647 102.99423 17011 ft 385 kts 234°
2026-05-07 09:58 18.63081 102.97155 16435 ft 381 kts 234°
2026-05-07 09:58 18.61523 102.94906 15864 ft 378 kts 234°
2026-05-07 09:58 18.59978 102.92677 15297 ft 376 kts 234°
2026-05-07 09:58 18.58439 102.90457 14699 ft 374 kts 234°
2026-05-07 09:59 18.56914 102.88258 14137 ft 371 kts 235°
2026-05-07 09:59 18.55395 102.86067 13601 ft 369 kts 235°
2026-05-07 09:59 18.53886 102.83891 13044 ft 365 kts 235°
2026-05-07 09:59 18.52428 102.81789 12680 ft 357 kts 235°
2026-05-07 10:00 18.50968 102.79685 12146 ft 354 kts 235°
2026-05-07 10:00 18.49521 102.77601 11626 ft 351 kts 235°
2026-05-07 10:00 18.48084 102.75532 11076 ft 349 kts 235°
2026-05-07 10:00 18.46655 102.73474 10559 ft 347 kts 235°
2026-05-07 10:01 18.45244 102.71443 10240 ft 338 kts 235°
2026-05-07 10:01 18.43864 102.69499 10112 ft 324 kts 231°
2026-05-07 10:01 18.42344 102.67811 9982 ft 311 kts 226°
2026-05-07 10:01 18.40850 102.66248 9703 ft 304 kts 226°
2026-05-07 10:02 18.39372 102.64688 9391 ft 299 kts 226°
2026-05-07 10:02 18.37913 102.63144 8982 ft 297 kts 226°
2026-05-07 10:02 18.36556 102.61705 8608 ft 295 kts 226°
2026-05-07 10:02 18.35116 102.60182 8210 ft 293 kts 226°
2026-05-07 10:03 18.33681 102.58668 7808 ft 291 kts 226°
2026-05-07 10:03 18.32256 102.57163 7415 ft 290 kts 226°
2026-05-07 10:03 18.30836 102.55662 7025 ft 288 kts 226°
2026-05-07 10:03 18.29421 102.54169 6638 ft 288 kts 226°
2026-05-07 10:04 18.28026 102.52697 6242 ft 288 kts 226°
2026-05-07 10:04 18.26615 102.51210 5822 ft 287 kts 226°
2026-05-07 10:04 18.25207 102.49724 5411 ft 286 kts 226°
2026-05-07 10:04 18.23808 102.48246 5031 ft 284 kts 225°
2026-05-07 10:05 18.22416 102.46778 4630 ft 283 kts 225°
2026-05-07 10:05 18.21029 102.45315 4222 ft 282 kts 225°
2026-05-07 10:05 18.19648 102.43860 3855 ft 279 kts 225°
2026-05-07 10:05 18.18307 102.42447 3546 ft 276 kts 225°
2026-05-07 10:06 18.16915 102.41069 3201 ft 275 kts 214°
2026-05-07 10:06 18.15174 102.40330 2922 ft 268 kts 186°
2026-05-07 10:06 18.13390 102.40534 2775 ft 253 kts 159°
2026-05-07 10:06 18.11995 102.41561 2654 ft 241 kts 133°
2026-05-07 10:07 18.10981 102.42917 2491 ft 231 kts 127°
2026-05-07 10:07 18.10047 102.44263 2155 ft 226 kts 129°
2026-05-07 10:07 18.09079 102.45518 1991 ft 215 kts 131°
2026-05-07 10:07 18.08151 102.46604 1952 ft 191 kts 135°
2026-05-07 10:08 18.07276 102.47562 1917 ft 171 kts 135°
2026-05-07 10:08 18.06532 102.48356 1932 ft 137 kts 137°
2026-05-07 10:08 18.05866 102.49044 1930 ft 136 kts 138°
2026-05-07 10:08 18.05202 102.49729 1933 ft 135 kts 137°
2026-05-07 10:09 18.04529 102.50420 1935 ft 135 kts 138°
2026-05-07 10:09 18.03859 102.51114 1863 ft 134 kts 139°
2026-05-07 10:09 18.03196 102.51804 1612 ft 134 kts 137°
2026-05-07 10:09 18.02545 102.52475 1385 ft 132 kts 138°
2026-05-07 10:10 18.01897 102.53145 1158 ft 136 kts 137°
2026-05-07 10:10 18.01203 102.53861 982 ft 141 kts 136°
2026-05-07 10:10 18.00508 102.54593 811 ft 143 kts 135°
2026-05-07 10:10 17.99796 102.55327 604 ft 145 kts 135°
2026-05-07 10:11 17.99127 102.56023 562 ft 113 kts 135°
2026-05-07 10:11 17.98756 102.56407 567 ft 59 kts 135°
2026-05-07 10:11 17.98470 102.56703 570 ft 56 kts 135°
2026-05-07 10:11 17.98241 102.56875 563 ft 21 kts 164°
2026-05-07 10:12 17.98126 102.56906 566 ft 18 kts 166°
2026-05-07 10:12 17.98026 102.56936 567 ft 15 kts 164°
2026-05-07 10:12 17.97914 102.56968 568 ft 18 kts 165°
2026-05-07 10:12 17.97785 102.56976 563 ft 20 kts 207°
2026-05-07 10:13 17.97735 102.56929 565 ft 10 kts 224°
2026-05-07 10:13 17.97676 102.56948 565 ft 11 kts 134°
2026-05-07 10:13 17.97612 102.57016 572 ft 14 kts 135°
2026-05-07 10:13 17.97579 102.57024 570 ft 6 kts 202°
2026-05-07 10:14 17.97546 102.56995 566 ft 0 kts 226°
2026-05-07 10:14 17.97535 102.56985 564 ft 3 kts 224°
2026-05-07 10:14 17.97533 102.56982 563 ft 0 kts 224°
2026-05-07 10:14 17.97533 102.56983 563 ft 0 kts 224°